Powrót do katalogu

CZ-2D DEB

AktywnySSO
NORAD 44612·DEBRIS·🇨🇳 China

Wystrzelony Oct 9, 2017 z Jiuquan Satellite Launch Center

Loading…

Następne Przeloty (najbliższe 24 godziny)

TLE

ŚwieżeSource: Space-Track

Epoka: Sep 14, 2026, 11:10 UTC

1 44612U 17060E   26257.46562934  .00002803  00000-0  26075-3 0  9998
2 44612  97.5943 258.5081 0010953 148.8215 211.3658 14.95060348480224

Śledź CZ-2D DEB w czasie rzeczywistym z AllMySat

Download on the App Store